Newport, VT

9:20 PM EDT on April 22, 2018 (GMT -0400)
Newport State

Weather History for KEFK - March, 2013

Change the Weather History Date:

Friday, March 8, 2013

  Actual Average Record
Temperature  
Mean Temperature 31 °F -  
Max Temperature 38 °F 35 °F 60 °F (2012)
Min Temperature 24 °F 11 °F -21 °F (1989)
Degree Days  
Heating Degree Days 34    
Moisture  
Dew Point 20 °F    
Average Humidity 64    
Maximum Humidity 78    
Minimum Humidity 43    
Precipitation  
Precipitation 0.00 in - - ()
Sea Level Pressure  
Sea Level Pressure 30.22 in    
Wind  
Wind Speed 10 mph (NNW)    
Max Wind Speed 15 mph    
Max Gust Speed 18 mph    
Visibility 10 miles    
Events      
Averages and records for this station are not official NWS values.
T = Trace of Precipitation, MM = Missing Value Source: NWS Daily Summary

Daily Weather History Graph

Daily Weather History Graph

Search for Another Location

Airport or City:

Astronomy

Mar. 08, 2013 Rise Set
Actual Time 6:13 AM EST 5:46 PM EST
Civil Twilight 5:44 AM EST 6:15 PM EST
Nautical Twilight 5:10 AM EST 6:49 PM EST
Astronomical Twilight 4:36 AM EST 7:23 PM EST
Moon 4:03 AM EST (3/8) 2:31 PM EST (3/8)
Length of Visible Light 12h 30m
Length of Day
11h 32m
Waning Crescent, 12% of the Moon is Illuminated
Mar 8
Waning Crescent
Mar 11
New
Mar 19
First Quarter
Mar 27
Full
Apr 3
Last Quarter

Hourly Weather History & Observations

Time (EST) Temp. Windchill Dew Point Humidity Pressure Visibility Wind Dir Wind Speed Gust Speed Precip Events Conditions
12:15 AM 28.2 °F 20.2 °F 19.4 °F 70% 30.14 in 10.0 mi North 8.1 mph - N/A   Overcast
12:35 AM 28.0 °F 18.1 °F 19.4 °F 70% 30.14 in 10.0 mi North 11.5 mph - N/A   Overcast
1:15 AM 27.9 °F 18.4 °F 19.6 °F 71% 30.14 in 10.0 mi North 10.4 mph - N/A   Overcast
1:35 AM 27.7 °F 16.1 °F 19.6 °F 72% 30.14 in 10.0 mi North 15.0 mph - N/A   Overcast
1:55 AM 27.9 °F 17.8 °F 19.6 °F 71% 30.13 in 10.0 mi North 11.5 mph - N/A   Overcast
2:15 AM 27.7 °F 17.1 °F 19.8 °F 72% 30.14 in 10.0 mi North 12.7 mph - N/A   Overcast
2:55 AM 27.9 °F 17.3 °F 19.8 °F 72% 30.14 in 10.0 mi North 12.7 mph 18.4 mph N/A   Overcast
3:15 AM 27.7 °F 17.6 °F 19.9 °F 73% 30.13 in 10.0 mi North 11.5 mph - N/A   Overcast
3:35 AM 27.5 °F 18.0 °F 19.8 °F 73% 30.14 in 10.0 mi North 10.4 mph - N/A   Overcast
3:55 AM 27.3 °F 16.6 °F 19.6 °F 73% 30.13 in 10.0 mi North 12.7 mph - N/A   Overcast
4:15 AM 27.1 °F 15.9 °F 19.9 °F 74% 30.14 in 10.0 mi North 13.8 mph - N/A   Overcast
4:55 AM 27.3 °F 16.6 °F 19.8 °F 73% 30.15 in 10.0 mi North 12.7 mph - N/A   Overcast
5:15 AM 27.1 °F 15.9 °F 19.9 °F 74% 30.15 in 10.0 mi NNW 13.8 mph - N/A   Overcast
5:35 AM 27.3 °F 17.1 °F 19.9 °F 74% 30.16 in 10.0 mi North 11.5 mph - N/A   Overcast
5:55 AM 27.1 °F 16.9 °F 19.9 °F 74% 30.16 in 10.0 mi NNW 11.5 mph - N/A   Overcast
6:15 AM 27.0 °F 16.7 °F 19.9 °F 75% 30.17 in 10.0 mi North 11.5 mph - N/A   Overcast
6:55 AM 27.0 °F 18.0 °F 19.8 °F 74% 30.18 in 10.0 mi North 9.2 mph - N/A   Overcast
7:35 AM 27.1 °F 17.5 °F 19.8 °F 74% 30.19 in 10.0 mi North 10.4 mph - N/A   Overcast
7:55 AM 27.0 °F 18.0 °F 19.8 °F 74% 30.20 in 10.0 mi North 9.2 mph - N/A   Overcast
8:15 AM 27.0 °F 17.3 °F 19.6 °F 74% 30.19 in 10.0 mi NNW 10.4 mph - N/A   Mostly Cloudy
8:35 AM 27.1 °F 17.5 °F 19.2 °F 72% 30.20 in 10.0 mi North 10.4 mph - N/A   Mostly Cloudy
8:55 AM 26.6 °F 15.2 °F 18.9 °F 73% 30.20 in 10.0 mi North 13.8 mph - N/A   Scattered Clouds
9:15 AM 26.6 °F 16.2 °F 18.7 °F 72% 30.20 in 10.0 mi North 11.5 mph 16.1 mph N/A   Scattered Clouds
9:35 AM 27.0 °F 16.7 °F 18.7 °F 71% 30.21 in 10.0 mi North 11.5 mph - N/A   Scattered Clouds
9:55 AM 27.5 °F 15.9 °F 18.9 °F 70% 30.21 in 10.0 mi North 15.0 mph - N/A   Clear
10:15 AM 28.0 °F 17.0 °F 18.9 °F 68% 30.21 in 10.0 mi North 13.8 mph - N/A   Clear
10:35 AM 28.4 °F 18.5 °F 18.7 °F 67% 30.22 in 10.0 mi North 11.5 mph - N/A   Clear
10:55 AM 29.7 °F 20.1 °F 18.7 °F 64% 30.22 in 10.0 mi North 11.5 mph - N/A   Clear
11:15 AM 31.3 °F 23.3 °F 18.9 °F 60% 30.22 in 10.0 mi North 9.2 mph - N/A   Clear
11:35 AM 32.0 °F 23.6 °F 19.0 °F 59% 30.22 in 10.0 mi North 10.4 mph - N/A   Clear
11:55 AM 32.5 °F 23.7 °F 18.9 °F 57% 30.22 in 10.0 mi NNW 11.5 mph - N/A   Clear
12:15 PM 33.4 °F 25.4 °F 18.9 °F 55% 30.22 in 10.0 mi NNW 10.4 mph - N/A   Clear
12:35 PM 34.2 °F 26.8 °F 19.0 °F 54% 30.21 in 10.0 mi North 9.2 mph - N/A   Clear
12:55 PM 34.9 °F 26.2 °F 18.9 °F 52% 30.21 in 10.0 mi North 12.7 mph 16.1 mph N/A   Clear
1:15 PM 35.2 °F 27.1 °F 19.0 °F 52% 30.21 in 10.0 mi North 11.5 mph - N/A   Clear
1:35 PM 35.8 °F 28.8 °F 18.7 °F 50% 30.21 in 10.0 mi North 9.2 mph - N/A   Clear
1:55 PM 36.5 °F 29.7 °F 19.0 °F 49% 30.21 in 10.0 mi North 9.2 mph - N/A   Clear
2:15 PM 37.2 °F 30.6 °F 18.0 °F 46% 30.21 in 10.0 mi North 9.2 mph - N/A   Clear
2:35 PM 37.8 °F 30.7 °F 18.7 °F 46% 30.21 in 10.0 mi North 10.4 mph - N/A   Clear
2:55 PM 38.1 °F 30.2 °F 18.5 °F 45% 30.21 in 10.0 mi NNW 12.7 mph 16.1 mph N/A   Clear
3:15 PM 37.9 °F 30.9 °F 18.7 °F 46% 30.21 in 10.0 mi NNW 10.4 mph - N/A   Clear
3:35 PM 38.7 °F 31.8 °F 18.5 °F 44% 30.21 in 10.0 mi NNW 10.4 mph - N/A   Clear
3:55 PM 38.8 °F 32.1 °F 18.0 °F 43% 30.21 in 10.0 mi NNW 10.4 mph - N/A   Clear
4:15 PM 38.3 °F 31.9 °F 19.0 °F 46% 30.22 in 10.0 mi NNW 9.2 mph - N/A   Clear
4:35 PM 37.9 °F 32.7 °F 19.8 °F 48% 30.22 in 10.0 mi NW 6.9 mph - N/A   Clear
4:55 PM 37.0 °F 30.4 °F 20.1 °F 50% 30.23 in 10.0 mi NW 9.2 mph - N/A   Clear
5:15 PM 36.5 °F 29.7 °F 20.1 °F 52% 30.24 in 10.0 mi NW 9.2 mph - N/A   Clear
5:35 PM 36.0 °F 29.0 °F 19.9 °F 52% 30.24 in 10.0 mi NW 9.2 mph - N/A   Clear
5:55 PM 34.7 °F 26.9 °F 20.1 °F 55% 30.25 in 10.0 mi NNW 10.4 mph - N/A   Clear
6:15 PM 34.2 °F 27.5 °F 19.8 °F 56% 30.26 in 10.0 mi NNW 8.1 mph - N/A   Clear
6:35 PM 32.5 °F 25.5 °F 20.1 °F 60% 30.27 in 10.0 mi North 8.1 mph - N/A   Clear
6:55 PM 32.0 °F 24.2 °F 19.9 °F 61% 30.27 in 10.0 mi NNW 9.2 mph - N/A   Clear
7:15 PM 32.5 °F 24.8 °F 20.1 °F 60% 30.28 in 10.0 mi NNW 9.2 mph - N/A   Clear
7:35 PM 32.9 °F 25.9 °F 20.3 °F 60% 30.29 in 10.0 mi NW 8.1 mph - N/A   Clear
7:55 PM 32.2 °F 25.8 °F 20.7 °F 63% 30.29 in 10.0 mi NW 6.9 mph - N/A   Clear
8:15 PM 32.0 °F 26.4 °F 21.0 °F 64% 30.29 in 10.0 mi NW 5.8 mph - N/A   Clear
8:35 PM 31.5 °F 25.8 °F 21.0 °F 65% 30.30 in 10.0 mi NNW 5.8 mph - N/A   Clear
8:55 PM 30.9 °F 25.2 °F 20.8 °F 66% 30.30 in 10.0 mi NW 5.8 mph - N/A   Clear
9:15 PM 31.1 °F 25.4 °F 21.0 °F 66% 30.30 in 10.0 mi NW 5.8 mph - N/A   Clear
9:35 PM 30.0 °F 26.5 °F 20.5 °F 68% 30.30 in 10.0 mi NW 3.5 mph - N/A   Clear
9:55 PM 30.0 °F - 21.0 °F 69% 30.29 in 10.0 mi Calm Calm - N/A   Clear
10:15 PM 25.5 °F - 19.4 °F 78% 30.29 in 10.0 mi Calm Calm - N/A   Clear
10:35 PM 24.4 °F 18.6 °F 17.8 °F 76% 30.29 in 10.0 mi NNW 4.6 mph - N/A   Clear
10:55 PM 25.9 °F 21.7 °F 18.9 °F 75% 30.29 in 10.0 mi North 3.5 mph - N/A   Clear
11:15 PM 27.9 °F - 21.0 °F 75% 30.28 in 10.0 mi Calm Calm - N/A   Clear
11:55 PM 27.1 °F 19.7 °F 20.1 °F 75% 30.29 in 10.0 mi NW 6.9 mph - N/A   Clear